Weather History for Michigan City, IN

Change the Weather History Date:

Saturday, September 28, 2013

  Actual Average (KVPZ) Record (KVPZ)
Temperature  
Mean Temperature 66 °F 59 °F  
Max Temperature 80 °F 70 °F 84 °F (2013)
Min Temperature 53 °F 48 °F 39 °F (2000)
Degree Days  
Heating Degree Days 0 8  
Month to date heating degree days 98  
Since 1 July heating degree days 115  
Cooling Degree Days 2 1  
Month to date cooling degree days 63  
Year to date cooling degree days 699  
Growing Degree Days 16 (Base 50)    
Moisture  
Dew Point 52 °F    
Average Humidity 59    
Maximum Humidity 88    
Minimum Humidity 34    
Precipitation  
Precipitation 0.00 in 0.11 in 0.78 in (1999)
Month to date precipitation 2.98  
Year to date precipitation 28.52  
Sea Level Pressure  
Sea Level Pressure 30.05 in    
Wind  
Wind Speed 6 mph (SSE)    
Max Wind Speed 14 mph    
Max Gust Speed 21 mph    
Visibility 10 miles    
Events      
T = Trace of Precipitation, MM = Missing Value Source: NWS Daily Summary

Daily Weather History Graph

Daily Weather History Graph

Search for Another Location

Airport:

Trip Planner

Search our weather history database for the weather conditions in past years. The results will help you decide how hot, cold, wet, or windy it might be!

Date:

Astronomy

Sep. 28, 2013 Rise Set
Actual Time 6:41 AM CDT 6:33 PM CDT
Civil Twilight 6:13 AM CDT 7:01 PM CDT
Nautical Twilight 5:41 AM CDT 7:33 PM CDT
Astronomical Twilight 5:08 AM CDT 8:06 PM CDT
Moon 12:24 AM CDT (9/28) 2:56 PM CDT (9/28)
Length of Visible Light 12h 47m
Length of Day
11h 52m
Waning Crescent, 36% of the Moon is Illuminated
Sep 28
Waning Crescent
Oct 4
New
Oct 11
First Quarter
Oct 18
Full
Oct 26
Last Quarter

Hourly Weather History & Observations

Time (CDT) Temp. Dew Point Humidity Pressure Visibility Wind Dir Wind Speed Gust Speed Precip Events Conditions
12:15 AM 60.8 °F 50.0 °F 68% 30.12 in 10.0 mi ESE 4.6 mph - N/A   Clear
12:35 AM 59.0 °F 50.0 °F 72% 30.12 in 10.0 mi ESE 4.6 mph - N/A   Clear
12:55 AM 59.0 °F 50.0 °F 72% 30.12 in 10.0 mi ESE 3.5 mph - N/A   Clear
1:15 AM 59.0 °F 50.0 °F 72% 30.12 in 10.0 mi ESE 6.9 mph - N/A   Clear
1:35 AM 59.0 °F 50.0 °F 72% 30.12 in 10.0 mi SE 5.8 mph - N/A   Clear
1:55 AM 57.2 °F 50.0 °F 77% 30.12 in 10.0 mi SE 6.9 mph - N/A   Clear
2:15 AM 57.2 °F 50.0 °F 77% 30.11 in 10.0 mi ESE 6.9 mph - N/A   Clear
2:35 AM 55.4 °F 50.0 °F 82% 30.10 in 10.0 mi ESE 4.6 mph - N/A   Clear
2:55 AM 55.4 °F 50.0 °F 82% 30.11 in 10.0 mi ESE 4.6 mph - N/A   Clear
3:15 AM 55.4 °F 50.0 °F 82% 30.11 in 10.0 mi SE 4.6 mph - N/A   Clear
3:35 AM 55.4 °F 50.0 °F 82% 30.10 in 10.0 mi ESE 4.6 mph - N/A   Clear
3:55 AM 55.4 °F 50.0 °F 82% 30.11 in 10.0 mi SE 3.5 mph - N/A   Clear
4:15 AM 55.4 °F 50.0 °F 82% 30.11 in 10.0 mi ESE 3.5 mph - N/A   Clear
4:35 AM 55.4 °F 50.0 °F 82% 30.12 in 10.0 mi ESE 4.6 mph - N/A   Clear
4:55 AM 53.6 °F 50.0 °F 88% 30.12 in 10.0 mi ESE 3.5 mph - N/A   Clear
5:15 AM 55.4 °F 50.0 °F 82% 30.11 in 10.0 mi SE 4.6 mph - N/A   Clear
5:35 AM 53.6 °F 50.0 °F 88% 30.11 in 10.0 mi SE 5.8 mph - N/A   Clear
5:55 AM 53.6 °F 50.0 °F 88% 30.12 in 10.0 mi SE 5.8 mph - N/A   Clear
6:15 AM 53.6 °F 50.0 °F 88% 30.12 in 10.0 mi SE 4.6 mph - N/A   Clear
6:35 AM 53.6 °F 50.0 °F 88% 30.12 in 10.0 mi SE 4.6 mph - N/A   Clear
6:55 AM 53.6 °F 50.0 °F 88% 30.12 in 10.0 mi SSE 4.6 mph - N/A   Clear
7:15 AM 55.4 °F 50.0 °F 82% 30.12 in 10.0 mi SE 3.5 mph - N/A   Clear
7:35 AM 55.4 °F 50.0 °F 82% 30.12 in 10.0 mi SE 4.6 mph - N/A   Clear
7:55 AM 57.2 °F 50.0 °F 77% 30.13 in 10.0 mi SE 3.5 mph - N/A   Clear
8:15 AM 59.0 °F 51.8 °F 77% 30.13 in 10.0 mi Calm Calm - N/A   Clear
8:35 AM 60.8 °F 51.8 °F 72% 30.13 in 10.0 mi SE 3.5 mph - N/A   Clear
8:55 AM 62.6 °F 51.8 °F 68% 30.13 in 10.0 mi SSE 4.6 mph - N/A   Clear
9:15 AM 64.4 °F 51.8 °F 64% 30.13 in 10.0 mi SSE 5.8 mph - N/A   Clear
9:35 AM 66.2 °F 53.6 °F 64% 30.12 in 10.0 mi SSE 5.8 mph - N/A   Clear
9:55 AM 68.0 °F 53.6 °F 60% 30.13 in 10.0 mi South 6.9 mph - N/A   Clear
10:15 AM 69.8 °F 53.6 °F 56% 30.12 in 10.0 mi South 3.5 mph - N/A   Clear
10:35 AM 71.6 °F 53.6 °F 53% 30.11 in 10.0 mi SSE 4.6 mph - N/A   Clear
10:55 AM 71.6 °F 55.4 °F 57% 30.10 in 10.0 mi South 6.9 mph - N/A   Clear
11:15 AM 73.4 °F 53.6 °F 50% 30.09 in 10.0 mi SSW 8.1 mph - N/A   Clear
11:35 AM 73.4 °F 53.6 °F 50% 30.09 in 10.0 mi South 10.4 mph 16.1 mph N/A   Clear
11:55 AM 75.2 °F 53.6 °F 47% 30.08 in 10.0 mi South 12.7 mph 18.4 mph N/A   Clear
12:15 PM 77.0 °F 51.8 °F 41% 30.07 in 10.0 mi SSW 13.8 mph 18.4 mph N/A   Clear
12:35 PM 77.0 °F 50.0 °F 39% 30.06 in 10.0 mi SSW 11.5 mph 19.6 mph N/A   Clear
12:55 PM 77.0 °F 51.8 °F 41% 30.05 in 10.0 mi South 9.2 mph 17.3 mph N/A   Clear
1:15 PM 77.0 °F 51.8 °F 41% 30.04 in 10.0 mi South 10.4 mph 16.1 mph N/A   Clear
1:35 PM 78.8 °F 51.8 °F 39% 30.02 in 10.0 mi South 10.4 mph 19.6 mph N/A   Clear
1:55 PM 78.8 °F 51.8 °F 39% 30.02 in 10.0 mi South 10.4 mph - N/A   Clear
2:15 PM 78.8 °F 51.8 °F 39% 30.01 in 10.0 mi SSW 11.5 mph 19.6 mph N/A   Clear
2:35 PM 78.8 °F 51.8 °F 39% 30.00 in 10.0 mi SSW 9.2 mph 19.6 mph N/A   Clear
2:55 PM 78.8 °F 51.8 °F 39% 30.00 in 10.0 mi South 8.1 mph 16.1 mph N/A   Clear
3:15 PM 78.8 °F 51.8 °F 39% 29.99 in 10.0 mi South 6.9 mph - N/A   Clear
3:35 PM 80.6 °F 50.0 °F 34% 30.00 in 10.0 mi SSW 11.5 mph 19.6 mph N/A   Clear
3:55 PM 78.8 °F 50.0 °F 36% 29.99 in 10.0 mi South 9.2 mph 18.4 mph N/A   Clear
4:15 PM 78.8 °F 50.0 °F 36% 29.98 in 10.0 mi South 10.4 mph 20.7 mph N/A   Scattered Clouds
4:35 PM 78.8 °F 50.0 °F 36% 29.98 in 10.0 mi South 10.4 mph 17.3 mph N/A   Scattered Clouds
4:55 PM 78.8 °F 51.8 °F 39% 29.97 in 10.0 mi South 9.2 mph - N/A   Scattered Clouds
5:15 PM 78.8 °F 51.8 °F 39% 29.97 in 10.0 mi South 6.9 mph - N/A   Scattered Clouds
5:35 PM 77.0 °F 51.8 °F 41% 29.97 in 10.0 mi South 9.2 mph - N/A   Scattered Clouds
5:55 PM 77.0 °F 53.6 °F 44% 29.96 in 10.0 mi South 5.8 mph - N/A   Scattered Clouds
6:15 PM 75.2 °F 53.6 °F 47% 29.96 in 10.0 mi South 5.8 mph - N/A   Scattered Clouds
6:35 PM 73.4 °F 53.6 °F 50% 29.96 in 10.0 mi SSE 3.5 mph - N/A   Clear
6:55 PM 71.6 °F 53.6 °F 53% 29.95 in 10.0 mi SSE 4.6 mph - N/A   Clear
7:15 PM 71.6 °F 53.6 °F 53% 29.96 in 10.0 mi South 5.8 mph - N/A   Clear
7:35 PM 71.6 °F 53.6 °F 53% 29.96 in 10.0 mi South 4.6 mph - N/A   Clear
7:55 PM 71.6 °F 53.6 °F 53% 29.96 in 10.0 mi South 5.8 mph - N/A   Clear
8:15 PM 71.6 °F 53.6 °F 53% 29.96 in 10.0 mi South 6.9 mph - N/A   Clear
8:35 PM 71.6 °F 53.6 °F 53% 29.97 in 10.0 mi South 6.9 mph - N/A   Clear
8:55 PM 71.6 °F 51.8 °F 50% 29.97 in 10.0 mi South 5.8 mph - N/A   Clear
9:15 PM 71.6 °F 51.8 °F 50% 29.97 in 10.0 mi South 8.1 mph - N/A   Mostly Cloudy
9:35 PM 71.6 °F 51.8 °F 50% 29.97 in 10.0 mi South 9.2 mph 16.1 mph N/A   Overcast
9:55 PM 71.6 °F 51.8 °F 50% 29.97 in 10.0 mi South 9.2 mph - N/A   Overcast
10:15 PM 71.6 °F 51.8 °F 50% 29.97 in 10.0 mi South 9.2 mph - N/A   Overcast
10:35 PM 71.6 °F 53.6 °F 53% 29.97 in 10.0 mi South 8.1 mph - N/A   Overcast
10:55 PM 71.6 °F 51.8 °F 50% 29.96 in 10.0 mi South 9.2 mph 16.1 mph N/A   Overcast
11:15 PM 71.6 °F 51.8 °F 50% 29.96 in 10.0 mi South 9.2 mph 18.4 mph N/A   Overcast
11:35 PM 71.6 °F 51.8 °F 50% 29.96 in 10.0 mi SSW 10.4 mph - N/A   Overcast
11:55 PM 71.6 °F 51.8 °F 50% 29.96 in 10.0 mi South 9.2 mph - N/A   Overcast